TRANSIT 10 DEB, 24705

Orbit data source: Space-Track

TRANSIT 10 DEB, 24705 is space debris in LEO originally from a launch on Wed, 22 Dec 1965 UTC launched from the Air Force Western Test Range (AFWTR). Debris objects in space refer to the collection of defunct objects orbiting the Earth. Examples of debris include non-operational satellites, rocket bodies, and fragments generated from explosions, collisions, or faulty payload assembly.

Loading next visibility...
Identifier
24705, 1965-109E
Orbit
LEO
Country
Flag of USUS
Related business
Manufacturer
Unknown
Mission
Spacecraft
Bus & Motor
Unknown
Mass
Unknown
Launch date (UTC)
1965-12-22 (60 years ago)
Launch vehicle
Unknown
Launch site
Air Force Western Test Range (AFWTR)
Object type
Payload
Rocket body
Debris
Shape & HBR
Unknown shape, 0.2 m
Radar Cross Section
Medium (>0.1 m² and <1 m²)

Expand to show TLE details & history
Last TLE update: 8 hours ago

TLE from 8 hours ago
0 TRANSIT 10 DEB
1 24705U 65109E   26125.76753097  .00002738  00000-0  14279-2 0  9994
2 24705  89.0741 202.8829 0078219 202.5361 285.7840 14.12709556494850
Epoch: 2026-05-05T18:25Z
TLE epoch observation values (Epoch: 2026-05-05T18:25:14.675Z)
Latitude
52.63261°
Longitude
-118.27214°
Altitude
843.81 km
Speed
7.444 km/s
True Right ascension
01h 26m 42s
True Declination
52° 28' 07"
Sunlit
Object was in daylight at epoch
Visualization orbit readout
Latitude
Unknown
Longitude
Unknown
Altitude
Unknown
Speed
Unknown
Apparent Right ascension
Unknown
Apparent Declination
Unknown
Sunlit
N/A
Visualization observer readout
Local Sidereal Time
09:52:35
Azimuth
Unknown
Elevation
Unknown
Doppler factor
Unknown
Orbital elements
Apogee altitude
903.59 km
Perigee altitude
790.561 km
Semi-major axis
7,225.212 km
Eccentricity
0.00782
Inclination
89.0741°
RAAN
202.8829°
Arg. of periapsis
202.5361°
True anomaly
284.91921°
Mean anomaly
285.784°
Eccentric anomaly
285.35183°
Mean motion
3.53401 °/min
Orbital period
101.87 mins
BSTAR
0.0014279
Loading maneuver chart data...
Computing Atmospheric mass density...
Loading historical data...
Loading historical data...
Loading historical data...
Loading historical data...
Loading historical data...
Loading historical data...
Loading historical data...

Documentation

Showing up to 5 results
|